AIC123 VAAH-WSSS

Flight info

Callsign AIC123
Flight time N/A
Altitude 39000
Route BODAR1A BODAR N895 NNP N877 AGEGA L510 GIVAL P628 VPL W531 VIH A464 VKL Y507 MAKNA Y511 TOPOR A464 ARAMA ARAMA1A
Aircraft A333/H-SDE3GHIJ2J3J5M1RVWXY/LB2D1

Departure

Time 2026-04-18 11:13
Airport Sardar Vallabh Patel International Airport (VAAH)

Arrival

Time N/A
Airport Singapore Changi Airport (WSSS)
Time Latitude Longitude Altitude Speed Heading
2026-04-18 10:15 23.07452 72.62572 190 ft 0 kts 316°
2026-04-18 10:51 23.07446 72.62578 190 ft 2 kts 316°
2026-04-18 10:51 23.07435 72.62588 190 ft 2 kts 333°
2026-04-18 10:51 23.07420 72.62594 190 ft 2 kts 347°
2026-04-18 10:51 23.07406 72.62596 190 ft 2 kts
2026-04-18 10:52 23.07391 72.62595 190 ft 2 kts 15°
2026-04-18 10:52 23.07377 72.62589 190 ft 2 kts 29°
2026-04-18 10:52 23.07365 72.62580 190 ft 1 kts 43°
2026-04-18 10:52 23.07361 72.62576 190 ft 0 kts 45°
2026-04-18 10:59 23.07371 72.62587 190 ft 7 kts 46°
2026-04-18 11:00 23.07433 72.62655 190 ft 17 kts 44°
2026-04-18 11:00 23.07509 72.62764 190 ft 18 kts 84°
2026-04-18 11:00 23.07457 72.62878 190 ft 14 kts 90°
2026-04-18 11:00 23.07506 72.62967 190 ft 16 kts 51°
2026-04-18 11:01 23.07594 72.63065 190 ft 20 kts 45°
2026-04-18 11:01 23.07704 72.63178 190 ft 23 kts 43°
2026-04-18 11:01 23.07834 72.63305 193 ft 26 kts 43°
2026-04-18 11:02 23.07869 72.63423 193 ft 0 kts 151°
2026-04-18 11:02 23.07865 72.63429 193 ft 0 kts 126°
2026-04-18 11:09 23.07847 72.63455 193 ft 14 kts 126°
2026-04-18 11:09 23.07876 72.63603 195 ft 28 kts 65°
2026-04-18 11:09 23.07954 72.63836 196 ft 31 kts 71°
2026-04-18 11:10 23.08067 72.63962 196 ft 17 kts
2026-04-18 11:10 23.08157 72.63968 196 ft 8 kts
2026-04-18 11:10 23.08238 72.63995 195 ft 21 kts 36°
2026-04-18 11:10 23.08356 72.64116 195 ft 21 kts 58°
2026-04-18 11:11 23.08328 72.64169 196 ft 3 kts 227°
2026-04-18 11:11 23.08325 72.64154 196 ft 2 kts 261°
2026-04-18 11:11 23.08320 72.64091 195 ft 11 kts 253°
2026-04-18 11:11 23.08296 72.64054 195 ft 0 kts 225°
2026-04-18 11:12 23.08216 72.63969 195 ft 45 kts 225°
2026-04-18 11:12 23.07835 72.63563 194 ft 108 kts 225°
2026-04-18 11:12 23.07170 72.62819 190 ft 163 kts 225°
2026-04-18 11:13 23.06291 72.61865 367 ft 188 kts 228°
2026-04-18 11:13 23.05406 72.60862 965 ft 187 kts 230°
2026-04-18 11:13 23.04391 72.59881 1449 ft 203 kts 218°
2026-04-18 11:13 23.03089 72.59199 1974 ft 217 kts 201°